PRF420 HTZA-HTAR

Flight info

Callsign PRF420
Flight time 1h 0m
Altitude 18000
Route GEREN
Aircraft AT75/M-SDFGIRY/S

Departure

Time 2026-05-08 14:28
Airport Abeid Amani Karume International Airport (HTZA)

Arrival

Time 2026-05-08 15:28
Airport Arusha Airport (HTAR)
Time Latitude Longitude Altitude Speed Heading
2026-05-08 14:14 -6.21861 39.22205 52 ft 0 kts 264°
2026-05-08 14:20 -6.21861 39.22208 48 ft 1 kts 264°
2026-05-08 14:21 -6.21860 39.22213 49 ft 1 kts 264°
2026-05-08 14:21 -6.21860 39.22219 50 ft 1 kts 264°
2026-05-08 14:21 -6.21859 39.22224 52 ft 1 kts 264°
2026-05-08 14:21 -6.21859 39.22230 52 ft 1 kts 264°
2026-05-08 14:22 -6.21858 39.22237 51 ft 1 kts 264°
2026-05-08 14:22 -6.21857 39.22247 50 ft 1 kts 262°
2026-05-08 14:22 -6.21856 39.22256 52 ft 1 kts 265°
2026-05-08 14:22 -6.21856 39.22266 50 ft 1 kts 290°
2026-05-08 14:23 -6.21860 39.22274 53 ft 1 kts 317°
2026-05-08 14:23 -6.21868 39.22280 49 ft 1 kts 335°
2026-05-08 14:23 -6.21877 39.22283 50 ft 1 kts
2026-05-08 14:23 -6.21881 39.22283 48 ft 0 kts
2026-05-08 14:24 -6.21875 39.22283 50 ft 3 kts
2026-05-08 14:24 -6.21836 39.22283 51 ft 5 kts 354°
2026-05-08 14:24 -6.21785 39.22287 53 ft 9 kts 25°
2026-05-08 14:25 -6.21766 39.22333 54 ft 6 kts 83°
2026-05-08 14:25 -6.21763 39.22364 55 ft 4 kts 85°
2026-05-08 14:25 -6.21762 39.22381 53 ft 0 kts 85°
2026-05-08 14:26 -6.21762 39.22382 53 ft 1 kts 85°
2026-05-08 14:26 -6.21761 39.22426 56 ft 9 kts 107°
2026-05-08 14:26 -6.21857 39.22456 56 ft 22 kts 175°
2026-05-08 14:26 -6.22165 39.22487 52 ft 68 kts 174°
2026-05-08 14:27 -6.22758 39.22546 55 ft 99 kts 169°
2026-05-08 14:27 -6.23496 39.22642 60 ft 114 kts 169°
2026-05-08 14:27 -6.24291 39.22708 262 ft 104 kts 175°
2026-05-08 14:27 -6.25055 39.22719 453 ft 120 kts 174°
2026-05-08 14:28 -6.25955 39.22739 508 ft 142 kts 176°
2026-05-08 14:28 -6.26860 39.22494 915 ft 133 kts 210°
2026-05-08 14:28 -6.27466 39.21745 1135 ft 145 kts 249°
2026-05-08 14:28 -6.27484 39.20713 1485 ft 148 kts 283°
2026-05-08 14:29 -6.26988 39.19792 1741 ft 160 kts 317°
2026-05-08 14:29 -6.26023 39.19209 2004 ft 169 kts 338°
2026-05-08 14:29 -6.24896 39.18694 2185 ft 178 kts 334°
2026-05-08 14:29 -6.23759 39.18173 2544 ft 183 kts 336°
2026-05-08 14:30 -6.22525 39.17655 2735 ft 201 kts 337°
2026-05-08 14:30 -6.21260 39.17010 3048 ft 206 kts 328°
2026-05-08 14:30 -6.20012 39.16246 3360 ft 215 kts 328°
2026-05-08 14:30 -6.18707 39.15440 3675 ft 224 kts 328°
2026-05-08 14:31 -6.17351 39.14605 4001 ft 231 kts 327°
2026-05-08 14:31 -6.15955 39.13741 4136 ft 244 kts 327°
2026-05-08 14:31 -6.14497 39.12839 4387 ft 249 kts 327°
2026-05-08 14:32 -6.11492 39.10977 4878 ft 256 kts 327°
2026-05-08 14:32 -6.09981 39.10045 5123 ft 259 kts 327°
2026-05-08 14:32 -6.08440 39.09090 5367 ft 261 kts 327°
2026-05-08 14:32 -6.06875 39.08122 5609 ft 262 kts 327°
2026-05-08 14:33 -6.05332 39.07168 5851 ft 263 kts 327°
2026-05-08 14:33 -6.03768 39.06198 6098 ft 264 kts 327°
2026-05-08 14:33 -6.02199 39.05228 6344 ft 264 kts 327°
2026-05-08 14:33 -6.00635 39.04258 6574 ft 265 kts 327°
2026-05-08 14:34 -5.99057 39.03282 6810 ft 265 kts 327°
2026-05-08 14:34 -5.97500 39.02321 7042 ft 265 kts 327°
2026-05-08 14:34 -5.95920 39.01344 7277 ft 265 kts 327°
2026-05-08 14:34 -5.94342 39.00369 7507 ft 265 kts 327°
2026-05-08 14:35 -5.92789 38.99409 7748 ft 265 kts 327°
2026-05-08 14:35 -5.91216 38.98436 7992 ft 265 kts 326°
2026-05-08 14:35 -5.89646 38.97463 8234 ft 265 kts 327°
2026-05-08 14:35 -5.88079 38.96495 8475 ft 264 kts 327°
2026-05-08 14:36 -5.86513 38.95528 8724 ft 264 kts 327°
2026-05-08 14:36 -5.84969 38.94573 8971 ft 263 kts 327°
2026-05-08 14:36 -5.83406 38.93609 9224 ft 263 kts 327°
2026-05-08 14:36 -5.81841 38.92640 9480 ft 263 kts 327°
2026-05-08 14:37 -5.80281 38.91678 9732 ft 263 kts 327°
2026-05-08 14:37 -5.78725 38.90714 9967 ft 262 kts 327°
2026-05-08 14:37 -5.77171 38.89753 10194 ft 262 kts 327°
2026-05-08 14:37 -5.75631 38.88803 10424 ft 262 kts 327°
2026-05-08 14:38 -5.74076 38.87844 10654 ft 262 kts 327°
2026-05-08 14:38 -5.72520 38.86883 10885 ft 263 kts 327°
2026-05-08 14:38 -5.70960 38.85918 11124 ft 263 kts 327°
2026-05-08 14:38 -5.69399 38.84955 11359 ft 263 kts 327°
2026-05-08 14:39 -5.67839 38.83992 11600 ft 263 kts 327°
2026-05-08 14:39 -5.66279 38.83029 11838 ft 263 kts 327°
2026-05-08 14:39 -5.64716 38.82063 12085 ft 263 kts 327°
2026-05-08 14:39 -5.63172 38.81109 12326 ft 264 kts 327°
2026-05-08 14:40 -5.61604 38.80141 12574 ft 263 kts 327°
2026-05-08 14:40 -5.60037 38.79175 12816 ft 263 kts 327°
2026-05-08 14:40 -5.58498 38.78225 13071 ft 263 kts 328°
2026-05-08 14:40 -5.56937 38.77260 13316 ft 262 kts 328°
2026-05-08 14:41 -5.55380 38.76301 13577 ft 262 kts 328°
2026-05-08 14:41 -5.53822 38.75339 13820 ft 261 kts 328°
2026-05-08 14:41 -5.52292 38.74395 14042 ft 260 kts 328°
2026-05-08 14:41 -5.50743 38.73439 14267 ft 260 kts 328°
2026-05-08 14:42 -5.49208 38.72491 14496 ft 258 kts 328°
2026-05-08 14:42 -5.47675 38.71546 14733 ft 257 kts 328°
2026-05-08 14:42 -5.46668 38.70924 14883 ft 257 kts 328°
2026-05-08 14:42 -5.45136 38.69980 15118 ft 255 kts 328°
2026-05-08 14:43 -5.43135 38.68744 15429 ft 254 kts 328°
2026-05-08 14:43 -5.41635 38.67818 15663 ft 252 kts 328°
2026-05-08 14:43 -5.40638 38.67203 15823 ft 252 kts 328°
2026-05-08 14:43 -5.39146 38.66282 16069 ft 251 kts 329°
2026-05-08 14:44 -5.37663 38.65368 16310 ft 249 kts 329°
2026-05-08 14:44 -5.35709 38.64164 16632 ft 248 kts 329°
2026-05-08 14:44 -5.34714 38.63550 16801 ft 247 kts 329°
2026-05-08 14:44 -5.33272 38.62661 17044 ft 246 kts 329°
2026-05-08 14:45 -5.31817 38.61763 17289 ft 244 kts 329°
2026-05-08 14:45 -5.30376 38.60871 17548 ft 243 kts 329°
2026-05-08 14:45 -5.28939 38.59985 17767 ft 243 kts 329°
2026-05-08 14:45 -5.27483 38.59089 17856 ft 248 kts 330°
2026-05-08 14:46 -5.25990 38.58171 17901 ft 255 kts 329°
2026-05-08 14:46 -5.24458 38.57226 17917 ft 261 kts 329°
2026-05-08 14:46 -5.22895 38.56263 17926 ft 266 kts 329°
2026-05-08 14:46 -5.21300 38.55279 17935 ft 271 kts 329°
2026-05-08 14:47 -5.19683 38.54282 17941 ft 274 kts 329°
2026-05-08 14:47 -5.18045 38.53268 17940 ft 278 kts 329°
2026-05-08 14:47 -5.16383 38.52245 17940 ft 280 kts 329°
2026-05-08 14:47 -5.14733 38.51229 17942 ft 282 kts 329°
2026-05-08 14:48 -5.13052 38.50193 17944 ft 284 kts 329°
2026-05-08 14:48 -5.11365 38.49152 17946 ft 285 kts 329°
2026-05-08 14:48 -5.09671 38.48107 17950 ft 286 kts 329°
2026-05-08 14:48 -5.07971 38.47061 17944 ft 287 kts 329°
2026-05-08 14:49 -5.06282 38.45986 17949 ft 287 kts 322°
2026-05-08 14:49 -5.04950 38.44502 17951 ft 286 kts 307°
2026-05-08 14:49 -5.03795 38.42872 17950 ft 287 kts 306°
2026-05-08 14:49 -5.02651 38.41257 17955 ft 288 kts 306°
2026-05-08 14:50 -5.01438 38.39652 17956 ft 288 kts 308°
2026-05-08 14:50 -5.00180 38.38077 17958 ft 289 kts 309°
2026-05-08 14:50 -4.98920 38.36499 17956 ft 290 kts 309°
2026-05-08 14:50 -4.97666 38.34912 17958 ft 290 kts 308°
2026-05-08 14:51 -4.96416 38.33325 17958 ft 290 kts 308°
2026-05-08 14:51 -4.95163 38.31738 17956 ft 290 kts 308°
2026-05-08 14:51 -4.93910 38.30152 17957 ft 290 kts 308°
2026-05-08 14:51 -4.92655 38.28566 17959 ft 290 kts 308°
2026-05-08 14:52 -4.91393 38.26967 17961 ft 290 kts 308°
2026-05-08 14:52 -4.88894 38.23809 17958 ft 291 kts 308°
2026-05-08 14:52 -4.87637 38.22217 17959 ft 291 kts 308°
2026-05-08 14:53 -4.86377 38.20626 17959 ft 291 kts 308°
2026-05-08 14:53 -4.85117 38.19030 17958 ft 291 kts 308°
2026-05-08 14:53 -4.83857 38.17438 17957 ft 291 kts 308°
2026-05-08 14:53 -4.82616 38.15868 17956 ft 291 kts 308°
2026-05-08 14:54 -4.81356 38.14275 17956 ft 291 kts 308°
2026-05-08 14:54 -4.80098 38.12684 17952 ft 291 kts 308°
2026-05-08 14:54 -4.78836 38.11087 17950 ft 291 kts 308°
2026-05-08 14:54 -4.77577 38.09498 17950 ft 291 kts 308°
2026-05-08 14:55 -4.76304 38.07888 17952 ft 291 kts 308°
2026-05-08 14:55 -4.75062 38.06318 17949 ft 290 kts 308°
2026-05-08 14:55 -4.73806 38.04728 17951 ft 290 kts 308°
2026-05-08 14:55 -4.72545 38.03139 17949 ft 290 kts 308°
2026-05-08 14:56 -4.71284 38.01545 17943 ft 290 kts 308°
2026-05-08 14:56 -4.70042 37.99974 17947 ft 290 kts 308°
2026-05-08 14:56 -4.68786 37.98389 17946 ft 290 kts 308°
2026-05-08 14:56 -4.67529 37.96800 17946 ft 290 kts 308°
2026-05-08 14:57 -4.66274 37.95212 17944 ft 290 kts 308°
2026-05-08 14:57 -4.65016 37.93625 17944 ft 290 kts 308°
2026-05-08 14:57 -4.63757 37.92032 17943 ft 290 kts 308°
2026-05-08 14:57 -4.62502 37.90447 17939 ft 290 kts 308°
2026-05-08 14:58 -4.61256 37.88873 17940 ft 290 kts 308°
2026-05-08 14:58 -4.60004 37.87292 17941 ft 290 kts 308°
2026-05-08 14:58 -4.58747 37.85707 17941 ft 290 kts 308°
2026-05-08 14:58 -4.57494 37.84123 17944 ft 290 kts 308°
2026-05-08 14:59 -4.56240 37.82538 17940 ft 290 kts 308°
2026-05-08 14:59 -4.53722 37.79359 17942 ft 290 kts 308°
2026-05-08 14:59 -4.52487 37.77799 17939 ft 290 kts 308°
2026-05-08 15:00 -4.51232 37.76216 17941 ft 290 kts 308°
2026-05-08 15:00 -4.49975 37.74631 17942 ft 290 kts 308°
2026-05-08 15:00 -4.48717 37.73043 17944 ft 290 kts 308°
2026-05-08 15:00 -4.47465 37.71462 17942 ft 290 kts 308°
2026-05-08 15:01 -4.46223 37.69895 17942 ft 290 kts 308°
2026-05-08 15:01 -4.44967 37.68307 17938 ft 289 kts 308°
2026-05-08 15:01 -4.43715 37.66729 17942 ft 289 kts 308°
2026-05-08 15:01 -4.42462 37.65148 17941 ft 289 kts 308°
2026-05-08 15:02 -4.41207 37.63565 17942 ft 289 kts 308°
2026-05-08 15:02 -4.39955 37.61984 17941 ft 289 kts 308°
2026-05-08 15:02 -4.38700 37.60401 17941 ft 289 kts 308°
2026-05-08 15:02 -4.37449 37.58821 17944 ft 289 kts 308°
2026-05-08 15:03 -4.36202 37.57250 17940 ft 289 kts 308°
2026-05-08 15:03 -4.34945 37.55664 17942 ft 289 kts 308°
2026-05-08 15:03 -4.33691 37.54080 17940 ft 289 kts 308°
2026-05-08 15:03 -4.32438 37.52503 17945 ft 289 kts 308°
2026-05-08 15:04 -4.31187 37.50925 17943 ft 289 kts 308°
2026-05-08 15:04 -4.29936 37.49345 17944 ft 289 kts 308°
2026-05-08 15:04 -4.28683 37.47767 17942 ft 289 kts 308°
2026-05-08 15:04 -4.27429 37.46186 17943 ft 289 kts 308°
2026-05-08 15:05 -4.26178 37.44608 17944 ft 289 kts 308°
2026-05-08 15:05 -4.24940 37.43048 17945 ft 289 kts 308°
2026-05-08 15:05 -4.23688 37.41469 17944 ft 289 kts 308°
2026-05-08 15:05 -4.22436 37.39891 17949 ft 289 kts 308°
2026-05-08 15:06 -4.21183 37.38310 17944 ft 289 kts 308°
2026-05-08 15:06 -4.19930 37.36728 17946 ft 289 kts 308°
2026-05-08 15:06 -4.18677 37.35153 17943 ft 289 kts 308°
2026-05-08 15:06 -4.17423 37.33573 17950 ft 289 kts 308°
2026-05-08 15:07 -4.16189 37.32016 17953 ft 289 kts 308°
2026-05-08 15:07 -4.14940 37.30440 17952 ft 289 kts 308°
2026-05-08 15:07 -4.13691 37.28865 17952 ft 288 kts 308°
2026-05-08 15:07 -4.12442 37.27295 17954 ft 288 kts 308°
2026-05-08 15:08 -4.11191 37.25718 17954 ft 288 kts 308°
2026-05-08 15:08 -4.10366 37.24676 17955 ft 288 kts 308°
2026-05-08 15:08 -4.08706 37.22584 17954 ft 288 kts 308°
2026-05-08 15:08 -4.07449 37.21001 17954 ft 288 kts 308°
2026-05-08 15:09 -4.06198 37.19425 17956 ft 288 kts 308°
2026-05-08 15:09 -4.04952 37.17856 17956 ft 288 kts 308°
2026-05-08 15:09 -4.03702 37.16282 17954 ft 288 kts 308°
2026-05-08 15:09 -4.02450 37.14704 17959 ft 288 kts 308°
2026-05-08 15:10 -4.01201 37.13132 17959 ft 288 kts 308°
2026-05-08 15:10 -3.99954 37.11559 17956 ft 288 kts 308°
2026-05-08 15:10 -3.98702 37.09984 17958 ft 288 kts 308°
2026-05-08 15:10 -3.97468 37.08431 17963 ft 288 kts 308°
2026-05-08 15:11 -3.96218 37.06856 17960 ft 288 kts 308°
2026-05-08 15:11 -3.94969 37.05284 17958 ft 288 kts 308°
2026-05-08 15:11 -3.93720 37.03710 17960 ft 288 kts 308°
2026-05-08 15:11 -3.92471 37.02138 17965 ft 288 kts 308°
2026-05-08 15:12 -3.91223 37.00568 17963 ft 288 kts 308°
2026-05-08 15:12 -3.89979 36.99001 17964 ft 288 kts 308°
2026-05-08 15:12 -3.88726 36.97423 17964 ft 288 kts 308°
2026-05-08 15:12 -3.87477 36.95852 17963 ft 288 kts 308°
2026-05-08 15:13 -3.86247 36.94303 17960 ft 288 kts 308°
2026-05-08 15:13 -3.84999 36.92733 17967 ft 288 kts 308°
2026-05-08 15:13 -3.83749 36.91160 17969 ft 288 kts 308°
2026-05-08 15:13 -3.82500 36.89586 17967 ft 288 kts 308°
2026-05-08 15:14 -3.81254 36.88019 17965 ft 288 kts 308°
2026-05-08 15:14 -3.80008 36.86451 17969 ft 288 kts 308°
2026-05-08 15:14 -3.78758 36.84879 17970 ft 288 kts 308°
2026-05-08 15:14 -3.77934 36.83842 17974 ft 288 kts 308°
2026-05-08 15:15 -3.76580 36.82140 17977 ft 288 kts 308°
2026-05-08 15:15 -3.75343 36.80586 17977 ft 283 kts 308°
2026-05-08 15:15 -3.74135 36.79066 17823 ft 283 kts 308°
2026-05-08 15:15 -3.72896 36.77505 17474 ft 290 kts 308°
2026-05-08 15:16 -3.71623 36.75901 17126 ft 296 kts 308°
2026-05-08 15:16 -3.70331 36.74279 16792 ft 300 kts 308°
2026-05-08 15:16 -3.69017 36.72629 16334 ft 307 kts 308°
2026-05-08 15:16 -3.67678 36.70947 15781 ft 310 kts 308°
2026-05-08 15:17 -3.66338 36.69259 15429 ft 306 kts 308°
2026-05-08 15:17 -3.65039 36.67622 15091 ft 303 kts 308°
2026-05-08 15:17 -3.63728 36.65973 14729 ft 301 kts 308°
2026-05-08 15:17 -3.62429 36.64338 14374 ft 299 kts 308°
2026-05-08 15:18 -3.61134 36.62713 14021 ft 298 kts 308°
2026-05-08 15:18 -3.59840 36.61086 13644 ft 297 kts 308°
2026-05-08 15:18 -3.58989 36.60016 13379 ft 297 kts 308°
2026-05-08 15:18 -3.57700 36.58396 12983 ft 296 kts 307°
2026-05-08 15:19 -3.56420 36.56785 12589 ft 295 kts 307°
2026-05-08 15:19 -3.55137 36.55175 12198 ft 295 kts 307°
2026-05-08 15:19 -3.53444 36.53051 11686 ft 294 kts 307°
2026-05-08 15:19 -3.52642 36.51960 11433 ft 292 kts 302°
2026-05-08 15:20 -3.51256 36.49636 10934 ft 289 kts 297°
2026-05-08 15:20 -3.50604 36.48474 10684 ft 289 kts 297°
2026-05-08 15:20 -3.49606 36.46728 10314 ft 288 kts 298°
2026-05-08 15:20 -3.48575 36.45011 9945 ft 287 kts 299°
2026-05-08 15:21 -3.47534 36.43311 9534 ft 284 kts 300°
2026-05-08 15:21 -3.45873 36.41361 8996 ft 279 kts 328°
2026-05-08 15:21 -3.44730 36.40855 8734 ft 262 kts 343°
2026-05-08 15:21 -3.43011 36.40503 8363 ft 244 kts 356°
2026-05-08 15:22 -3.41361 36.40473 7979 ft 231 kts
2026-05-08 15:22 -3.39779 36.40572 7592 ft 223 kts
2026-05-08 15:22 -3.38267 36.40694 7334 ft 207 kts 10°
2026-05-08 15:22 -3.37115 36.41269 7197 ft 175 kts 54°
2026-05-08 15:23 -3.36566 36.42279 7133 ft 159 kts 72°
2026-05-08 15:23 -3.36242 36.43294 7118 ft 147 kts 80°
2026-05-08 15:23 -3.36052 36.44285 7096 ft 143 kts 85°
2026-05-08 15:23 -3.35954 36.45273 7108 ft 143 kts 89°
2026-05-08 15:24 -3.35924 36.46275 7108 ft 144 kts 92°
2026-05-08 15:24 -3.35945 36.47264 7107 ft 140 kts 94°
2026-05-08 15:24 -3.35985 36.48212 7113 ft 136 kts 95°
2026-05-08 15:24 -3.36022 36.49157 7109 ft 135 kts 95°
2026-05-08 15:25 -3.36063 36.50107 7008 ft 138 kts 95°
2026-05-08 15:25 -3.36117 36.51072 6922 ft 140 kts 95°
2026-05-08 15:25 -3.36170 36.52046 6834 ft 140 kts 95°
2026-05-08 15:25 -3.36225 36.53024 6749 ft 141 kts 95°
2026-05-08 15:26 -3.36280 36.54004 6669 ft 141 kts 95°
2026-05-08 15:26 -3.36334 36.54988 6528 ft 144 kts 95°
2026-05-08 15:26 -3.36395 36.56004 6193 ft 150 kts 94°
2026-05-08 15:26 -3.36439 36.57050 5891 ft 148 kts 93°
2026-05-08 15:27 -3.36485 36.58054 5776 ft 140 kts 93°
2026-05-08 15:27 -3.36515 36.59013 5640 ft 138 kts 92°
2026-05-08 15:27 -3.36549 36.60020 5249 ft 144 kts 96°
2026-05-08 15:27 -3.36577 36.61001 4900 ft 138 kts 94°
2026-05-08 15:28 -3.36637 36.61935 4593 ft 127 kts 96°
2026-05-08 15:28 -3.36677 36.62560 4571 ft 25 kts 90°
2026-05-08 15:28 -3.36681 36.62590 4571 ft 4 kts 137°
2026-05-08 15:28 -3.36728 36.62538 4570 ft 9 kts 246°
2026-05-08 15:29 -3.36731 36.62532 4570 ft 0 kts 246°
2026-05-08 15:29 -3.36729 36.62518 4569 ft 7 kts 280°
2026-05-08 15:29 -3.36750 36.62494 4568 ft 5 kts 196°
2026-05-08 15:29 -3.36756 36.62487 4568 ft 2 kts 244°
2026-05-08 15:30 -3.36747 36.62478 4571 ft 2 kts 345°
2026-05-08 15:30 -3.36742 36.62480 4571 ft 0 kts